When you browse on this site, cookies collect data to enhance your experience and personalize the content and advertising you see.
Visit our Privacy Policy to learn more. By continuing to use the site, you agree to this use of cookies and data.
  • en France
  • Liste des pays
  • À 7 jours
  • Température de l'eau
  • Carte satellitaire
  • Carte météo
  • Widgets météo
  • user-avatar
    Se connecter

    Météo par heure à Yukovo

    Ce jour, 18 Février, Lundi

    Heure Température Précipitation Vent Pression Humidité
    00:00 -4°C° 0 mm 4 m/s 754 mmHg 82%
    01:00 -4°C° 0 mm 3 m/s 755 mmHg 82%
    02:00 -5°C° 0 mm 3 m/s 755 mmHg 89%
    03:00 -5°C° 0 mm 2 m/s 756 mmHg 89%
    04:00 -5°C° 0 mm 2 m/s 756 mmHg 90%
    05:00 -5°C° 0 mm 2 m/s 757 mmHg 91%
    06:00 -5°C° 0 mm 2 m/s 757 mmHg 91%
    07:00 -6°C° 0 mm 2 m/s 758 mmHg 91%
    08:00 -6°C° 0 mm 2 m/s 758 mmHg 91%
    09:00 -3°C° 0 mm 1 m/s 758 mmHg 85%
    10:00 -2°C° 0 mm 1 m/s 759 mmHg 79%
    11:00 -1°C° 0 mm 1 m/s 759 mmHg 72%
    12:00 0°C° 0 mm 1 m/s 759 mmHg 69%
    13:00 +1°C° 0 mm 1 m/s 759 mmHg 65%
    14:00 +1°C° 0 mm 1 m/s 759 mmHg 62%
    15:00 0°C° 0 mm 1 m/s 759 mmHg 66%
    16:00 0°C° 0 mm 1 m/s 758 mmHg 70%
    17:00 -1°C° 0 mm 1 m/s 758 mmHg 74%
    18:00 -1°C° 0 mm 1 m/s 758 mmHg 75%
    19:00 -4°C° 0 mm 2 m/s 758 mmHg 77%
    20:00 -4°C° 0 mm 2 m/s 758 mmHg 78%
    21:00 -5°C° 0 mm 3 m/s 757 mmHg 76%
    22:00 -5°C° 0 mm 3 m/s 757 mmHg 74%
    23:00 -4°C° 0 mm 3 m/s 756 mmHg 72%

    Demain, 19 Février, Mardi

    Heure Température Précipitation Vent Pression Humidité
    00:00 -4°C° 0 mm 4 m/s 756 mmHg 71%
    01:00 -4°C° 0 mm 4 m/s 756 mmHg 70%
    02:00 -3°C° 0 mm 4 m/s 755 mmHg 69%
    03:00 -3°C° 0 mm 4 m/s 754 mmHg 72%
    04:00 -3°C° 0 mm 4 m/s 754 mmHg 75%
    05:00 -3°C° 0 mm 4 m/s 753 mmHg 78%
    06:00 -3°C° 0 mm 4 m/s 753 mmHg 79%
    07:00 -3°C° 0 mm 4 m/s 752 mmHg 81%
    08:00 -2°C° 0 mm 4 m/s 752 mmHg 83%
    09:00 -1°C° 0 mm 4 m/s 751 mmHg 80%
    10:00 0°C° 0 mm 5 m/s 751 mmHg 78%
    11:00 +1°C° 0 mm 5 m/s 750 mmHg 75%
    12:00 +1°C° 0 mm 5 m/s 750 mmHg 76%
    13:00 +2°C° 0 mm 5 m/s 749 mmHg 76%
    14:00 +2°C° 0 mm 5 m/s 749 mmHg 76%
    15:00 +3°C° 0 mm 4 m/s 748 mmHg 79%
    16:00 +1°C° 0 mm 4 m/s 747 mmHg 81%
    17:00 +1°C° 0 mm 4 m/s 747 mmHg 84%
    18:00 0°C° 0 mm 4 m/s 746 mmHg 85%
    19:00 0°C° 0 mm 5 m/s 745 mmHg 86%
    20:00 0°C° 0 mm 5 m/s 745 mmHg 87%
    21:00 0°C° 0 mm 5 m/s 744 mmHg 88%
    22:00 0°C° 0 mm 4 m/s 743 mmHg 88%
    23:00 0°C° 0 mm 4 m/s 742 mmHg 88%

    Après-demain, 20 Février, Mercredi

    Heure Température Précipitation Vent Pression Humidité
    00:00 +1°C° 0.1 mm 4 m/s 742 mmHg 88%
    01:00 +1°C° 0.1 mm 5 m/s 742 mmHg 87%
    02:00 +1°C° 0.1 mm 5 m/s 741 mmHg 87%
    03:00 +1°C° 0.1 mm 4 m/s 741 mmHg 87%
    04:00 +1°C° 0.1 mm 4 m/s 741 mmHg 88%
    05:00 +1°C° 0.1 mm 4 m/s 741 mmHg 89%
    06:00 +1°C° 0 mm 4 m/s 741 mmHg 88%
    07:00 +1°C° 0 mm 4 m/s 741 mmHg 87%
    08:00 +1°C° 0 mm 4 m/s 741 mmHg 87%
    09:00 +1°C° 0 mm 5 m/s 741 mmHg 84%
    10:00 +1°C° 0 mm 5 m/s 741 mmHg 80%
    11:00 +1°C° 0 mm 5 m/s 741 mmHg 77%
    12:00 +1°C° 0 mm 5 m/s 741 mmHg 77%
    13:00 +1°C° 0 mm 5 m/s 741 mmHg 77%
    14:00 +1°C° 0 mm 5 m/s 741 mmHg 77%
    15:00 +1°C° 0.1 mm 5 m/s 741 mmHg 78%
    16:00 +1°C° 0.1 mm 5 m/s 741 mmHg 80%
    17:00 0°C° 0.1 mm 5 m/s 740 mmHg 81%
    18:00 0°C° 0.2 mm 5 m/s 741 mmHg 80%
    19:00 0°C° 0.2 mm 5 m/s 741 mmHg 79%
    20:00 -1°C° 0.2 mm 6 m/s 741 mmHg 77%
    21:00 -2°C° 0 mm 6 m/s 741 mmHg 77%
    22:00 -3°C° 0 mm 6 m/s 742 mmHg 77%
    23:00 -4°C° 0 mm 6 m/s 742 mmHg 77%

    21 Février, Jeudi

    Heure Température Précipitation Vent Pression Humidité
    00:00 -5°C° 0.1 mm 6 m/s 743 mmHg 75%
    01:00 -5°C° 0.1 mm 6 m/s 744 mmHg 73%
    02:00 -5°C° 0.1 mm 6 m/s 744 mmHg 71%
    03:00 -6°C° 0.1 mm 6 m/s 745 mmHg 70%
    04:00 -8°C° 0.1 mm 6 m/s 745 mmHg 68%
    05:00 -8°C° 0.1 mm 6 m/s 745 mmHg 67%
    06:00 -8°C° 0.1 mm 6 m/s 746 mmHg 66%
    07:00 -9°C° 0.1 mm 6 m/s 746 mmHg 65%
    08:00 -9°C° 0.1 mm 7 m/s 747 mmHg 64%
    09:00 -8°C° 0 mm 7 m/s 748 mmHg 62%
    10:00 -8°C° 0 mm 7 m/s 748 mmHg 60%
    11:00 -8°C° 0 mm 7 m/s 749 mmHg 58%
    12:00 -8°C° 0 mm 7 m/s 750 mmHg 58%
    13:00 -8°C° 0 mm 6 m/s 750 mmHg 59%
    14:00 -8°C° 0 mm 6 m/s 751 mmHg 59%
    15:00 -8°C° 0 mm 6 m/s 752 mmHg 60%
    16:00 -8°C° 0 mm 6 m/s 753 mmHg 62%
    17:00 -8°C° 0 mm 6 m/s 754 mmHg 63%
    18:00 -9°C° 0 mm 6 m/s 755 mmHg 64%
    19:00 -9°C° 0 mm 6 m/s 756 mmHg 64%
    20:00 -9°C° 0 mm 6 m/s 757 mmHg 65%
    21:00 -10°C° 0 mm 5 m/s 757 mmHg 65%
    22:00 -10°C° 0 mm 5 m/s 758 mmHg 64%
    23:00 -10°C° 0 mm 5 m/s 759 mmHg 64%

    22 Février, Vendredi

    Heure Température Précipitation Vent Pression Humidité
    00:00 -11°C° 0 mm 5 m/s 760 mmHg 65%
    01:00 -11°C° 0 mm 5 m/s 761 mmHg 66%
    02:00 -10°C° 0 mm 4 m/s 761 mmHg 67%
    03:00 -10°C° 0 mm 4 m/s 762 mmHg 69%
    04:00 -11°C° 0 mm 4 m/s 763 mmHg 71%
    05:00 -11°C° 0 mm 4 m/s 763 mmHg 73%
    06:00 -10°C° 0 mm 3 m/s 764 mmHg 74%
    07:00 -10°C° 0 mm 3 m/s 765 mmHg 75%
    08:00 -10°C° 0 mm 3 m/s 765 mmHg 76%
    09:00 -9°C° 0 mm 3 m/s 766 mmHg 74%
    10:00 -9°C° 0 mm 3 m/s 767 mmHg 71%
    11:00 -8°C° 0 mm 3 m/s 767 mmHg 69%
    12:00 -7°C° 0 mm 3 m/s 768 mmHg 66%
    13:00 -6°C° 0 mm 3 m/s 768 mmHg 62%
    14:00 -6°C° 0 mm 3 m/s 768 mmHg 59%
    15:00 -6°C° 0 mm 3 m/s 768 mmHg 60%
    16:00 -5°C° 0 mm 2 m/s 769 mmHg 62%
    17:00 -6°C° 0 mm 2 m/s 769 mmHg 63%
    18:00 -6°C° 0 mm 2 m/s 769 mmHg 66%
    19:00 -6°C° 0 mm 2 m/s 769 mmHg 68%
    20:00 -7°C° 0 mm 2 m/s 769 mmHg 70%
    21:00 -7°C° 0 mm 2 m/s 769 mmHg 69%
    22:00 -7°C° 0 mm 2 m/s 769 mmHg 67%
    23:00 -7°C° 0 mm 2 m/s 769 mmHg 66%

    23 Février, Samedi

    Heure Température Précipitation Vent Pression Humidité
    00:00 -8°C° 0 mm 3 m/s 768 mmHg 62%
    01:00 -7°C° 0 mm 3 m/s 767 mmHg 58%
    02:00 -7°C° 0 mm 3 m/s 767 mmHg 55%
    03:00 -7°C° 0.1 mm 3 m/s 766 mmHg 61%
    04:00 -8°C° 0.1 mm 4 m/s 765 mmHg 67%
    05:00 -7°C° 0.1 mm 4 m/s 764 mmHg 74%
    06:00 -7°C° 0.7 mm 4 m/s 763 mmHg 80%
    07:00 -7°C° 0.7 mm 4 m/s 762 mmHg 86%
    08:00 -7°C° 0.7 mm 4 m/s 761 mmHg 92%
    09:00 -7°C° 1.1 mm 4 m/s 760 mmHg 91%
    10:00 -5°C° 1.1 mm 4 m/s 759 mmHg 91%
    11:00 -5°C° 1.1 mm 3 m/s 758 mmHg 90%
    12:00 -4°C° 0.2 mm 3 m/s 757 mmHg 90%
    13:00 -2°C° 0.2 mm 3 m/s 757 mmHg 89%
    14:00 -1°C° 0.2 mm 3 m/s 756 mmHg 88%
    15:00 0°C° 0.1 mm 3 m/s 755 mmHg 90%
    16:00 -1°C° 0.1 mm 4 m/s 755 mmHg 92%
    17:00 0°C° 0.1 mm 4 m/s 755 mmHg 94%
    18:00 0°C° 0 mm 4 m/s 755 mmHg 94%
    19:00 +1°C° 0 mm 3 m/s 755 mmHg 94%
    20:00 +2°C° 0 mm 3 m/s 755 mmHg 95%
    21:00 +1°C° 0 mm 3 m/s 756 mmHg 95%
    22:00 +1°C° 0 mm 3 m/s 756 mmHg 95%
    23:00 +1°C° 0 mm 3 m/s 756 mmHg 96%
    Voir plus